Showing default

TURKSAT 6A, 60233

Orbit data source: Space-Track

TURKSAT 6A, 60233 is a payload satellite owned by Turksat (TR) in GEO that was launched on Mon, 08 Jul 2024 UTC via an FALCON 9 launch vehicle from the Air Force Eastern Test Range (AFETR). Payload-class satellites include a variety of spacecraft equipped with specific instruments for various scientific and technological missions. These include communications satellites like Starlink; space stations such as the ISS; scientific satellites like the Hubble; Earth observation satellites from companies like Planet Labs, Umbra, and HawkEye 360; GPS; miniature CubeSats for education and research; and military/defense satellites.

Not visible in the next 10 days
Identifier
60233, 2024-127A
Orbit
GEO
Country
Flag of UnknownUnknown / TURK
Related business
Manufacturer
TUSAS
Mission
Operational Commercial Communications
Bus & Motor
TURKSAT 6, Unknown motor
Mass
4,250 kg wet, ~1,700 kg dry
Launch date (UTC)
2024-07-08 (1 year ago)
Launch vehicle
FALCON 9
Launch site
Air Force Eastern Test Range (AFETR)
Object type
Payload
Rocket body
Debris
Shape & HBR
Box + 2 Pan, 15.0 m
Radar Cross Section
39.706 m², Large (>1 m²)

Expand to show TLE details & history
Last TLE update: 13 hours ago

TLE from 13 hours ago
0 TURKSAT 6A
1 60233U 24127A   25261.16210723  .00000126  00000-0  00000-0 0  9997
2 60233   0.0517 224.2793 0005036 347.4136 245.9946  1.00273429  4281
Epoch: 2025-09-18T03:53Z
TLE epoch observation values (Epoch: 2025-09-18T03:53:26.064Z)
Latitude
-0.05815°
Longitude
41.95024°
Altitude
35,794.188 km
Speed
3.074 km/s
True Right ascension
06h 30m 32s
True Declination
0° 03' 29"
Sunlit
Object was in daylight at epoch
Visualization orbit readout
Latitude
Unknown
Longitude
Unknown
Altitude
Unknown
Speed
Unknown
Apparent Right ascension
Unknown
Apparent Declination
Unknown
Sunlit
N/A
Visualization observer readout
Local Sidereal Time
09:51:32
Azimuth
Unknown
Elevation
Unknown
Doppler factor
Unknown
Orbital elements
Apogee altitude
35,808.439 km
Perigee altitude
35,765.97 km
Semi-major axis
42,165.341 km
Eccentricity
0.0005
Inclination
0.0517°
RAAN
224.2793°
Arg. of periapsis
347.4136°
True anomaly
245.9419°
Mean anomaly
245.9946°
Eccentric anomaly
245.96825°
Mean motion
0.25067 °/min
Orbital period
1,436.13 mins
BSTAR
0
Loading maneuver chart data...
Computing Atmospheric mass density...
Loading historical data...
Loading historical data...
Loading historical data...
Loading historical data...
Loading historical data...
Loading historical data...
Loading historical data...
Other satellites on launch #127 in the year 2024 (2024-07-08 UTC)

Documentation

Showing up to 5 results
|